FENGYUN 1C DEB

Satellite information

Favourite Embed

Satellite Type and Status

DEBRISIN ORBIT

Key statistics

Satellite FENGYUN 1C DEB at a glance.

Uptime

9714

Days in orbit

Revolutions

≈ 14.3

Per day

Orbit

SSO

Sun Synchronous Orbit

Inclination

98.3

Latest

Satellite identification and parameters

Extended collection of information and parameters for FENGYUN 1C DEB.

Object identification

Identified? True

Debris? True

Object name: FENGYUN 1C DEB

International designator: 1999-025DVY

Object number (NORAD): 36247

Object ID (CCSDS): 36247

Country: PEOPLES REPUBLIC OF CHINA (PRC)

Current information (Y/N): Y

RCS size: SMALL

Orbital parameters

Period: 100.448 minutes

Inclination: 98.2687 deg

SMA: 7157.922 km

Apoapsis: 913.845 km

Periapsis: 645.729 km

RAAN: 359.4008 deg

Eccentricy: 0.0187286

Argument of periapsis: 35.0482 deg

Mean anomaly: 326.2863 deg

Mean motion: 14.33581294 rev/day

Mean motion (dot): 0.00002464 rev/day2

B* drag term: 0.00074473315 1/REarth

Two-line elements (TLE)

Creation date: Dec. 12, 2025, 10:14 a.m.

Reference frame: TEME

Reference center: EARTH

Epoch: Dec. 12, 2025, 7:24 a.m. UTC

TLE line 0: 0 FENGYUN 1C DEB

TLE line 1: 1 36247U 99025DVY 25346.30856684 .00002464 00000-0 74473-3 0 9991

TLE line 2: 2 36247 98.2687 359.4008 0187286 35.0482 326.2863 14.33581294702567

Live tracking on map

Real-time ground track for satellite FENGYUN 1C DEB.

In-orbit conjunctions

A list of the most updated potential collisions computed for object FENGYUN 1C DEB.

Target Orbit TCA Probability of collision Miss distance Type
COSMOS 2150 LEO 2025-10-30 23:43:10 0.0001471192 452.0 (m) PAYLOAD
COSMOS 2251 DEB LEO 2024-07-08 09:06:59 0.0001128932 349.0 (m) DEBRIS

Associated space launch

Chinese polar orbiting meteorological satellite

FENGYUN 1C DEB was lifted into orbit during the mission ‘Long March 4B | Feng Yun 1C’, on board a Long March 4B space rocket.

The launch took place on May 10, 1999, 1:33 a.m. from Launch Complex 7.

For more information about the launch, click the button.

Launch to space Long March 4B | Feng Yun 1C
Long March 4B | Feng Yun 1C

Agency: N/A

Status: Launch Successful

Launch date: May 10, 1999, 1:33 a.m. UTC

Rocket: Long March 4B

Launch pad: Launch Complex 7

Location: Taiyuan Satellite Launch Center, People's Republic of China

...

Latest news about this satellite

There are no fresh news available about this satellite. Check back as we update our databases every day.


Newsletter sign-up

Weekly statistics, charts and insights to help you stay on top of the space industry.